[[{"header":{"parameterUnit":"m.s-1","parameterCategory":1,"la1":30.2991,"la2":30.254,"lo1":-89.0895,"lo2":-89.0444,"dy":0.0017,"dx":0.0017,"nx":28,"ny":28,"refTime":"2025-04-15T09:00:00:Z","depth":0,"parameterNumber":2,"parameterNumberName":"U-component_of_WINDS"},"data":[0,0,0,0,0,0,0,0,0,0,0,0,0,0,0,0,0,0,0,0,0,0,0,0,0,0,0,0,0,0,0,0,0,0,0,0,0,0,0,0,0,0,0,0,0,0,0,0,0,0,0,0,0,0,0,0,0,0,-1.9257,-1.9258,0,-1.9364,-1.9365,-1.9366,-1.9293,-1.9289,-1.9286,-1.9283,-1.9396,-1.9402,-1.9408,0,0,0,0,0,0,0,0,0,0,0,0,0,-1.8993,-1.8998,-1.9257,-1.9258,-1.926,-1.9364,-1.9365,-1.9367,-1.9293,-1.9289,-1.9285,-1.9281,-1.9394,-1.9401,-1.9408,0,0,0,0,0,0,0,0,0,0,0,0,0,-1.9104,-1.9,-1.9257,-1.9235,-1.9235,-1.9363,-1.9365,-1.9367,-1.9294,-1.9289,-1.9284,-1.9279,-1.9391,-1.94,-1.9409,-1.9566,0,0,-1.9437,-1.9441,0,0,0,0,0,0,0,0,-1.9098,-1.9114,-1.9237,-1.9237,-1.9236,-1.931,-1.9313,-1.9434,-1.9295,-1.9272,-1.9283,-1.9277,-1.9371,-1.9382,-1.9413,-1.9571,-1.9576,-1.9438,-1.9444,-1.9448,-1.945,0,0,0,0,0,0,0,-1.9091,-1.9109,-1.9299,-1.9239,-1.9239,-1.9222,-1.9232,-1.9336,-1.9348,-1.9273,-1.9268,-1.9282,-1.937,-1.9404,-1.9415,-1.9578,-1.9438,-1.9446,-1.9452,-1.9455,-1.9872,-1.9877,0,0,0,0,0,0,-1.9084,-1.9103,-1.9296,-1.9302,-1.9153,-1.9231,-1.9242,-1.9291,-1.9347,-1.9351,-1.9286,-1.9278,-1.9391,-1.9405,-1.9419,-1.9608,-1.9448,-1.9456,-1.9461,-1.9866,-1.9873,-1.9879,0,0,0,0,0,0,-1.9079,-1.9102,-1.9292,-1.9202,-1.9224,-1.924,-1.9296,-1.9296,-1.933,-1.9356,-1.9359,-1.9318,-1.9388,-1.9406,-1.953,-1.9611,-1.946,-1.9469,-1.986,-1.9869,-1.9876,-1.9987,0,0,0,0,0,0,-1.9072,-1.9101,-1.916,-1.9203,-1.9229,-1.9401,-1.9301,-1.9302,-1.9346,-1.9336,-1.9387,-1.9391,-1.9385,-1.9517,-1.9539,-1.9621,-1.9476,-1.9853,-1.9864,-1.9874,-1.9976,-1.9998,-2.0017,0,0,0,0,0,-1.9062,-1.9187,-1.9163,-1.9187,-1.9303,-1.9405,-1.942,-1.941,-1.9352,-1.9413,-1.943,-1.939,-1.9598,-1.953,-1.9555,-1.9641,-1.9848,-1.9861,-1.9873,-1.9967,-1.9994,-2.0016,0,0,0,0,0,0,-1.9153,-1.9192,-1.9166,-1.9308,-1.9354,-1.9393,-1.9468,-1.9438,-1.9502,-1.9491,-1.9476,-1.9488,-1.9619,-1.9641,-1.9566,-1.9796,-1.9714,-1.9732,-1.9777,-1.9803,-1.9822,-1.9816,-1.9483,0,0,0,0,0,-1.9189,-1.9268,-1.9298,-1.942,-1.9445,-1.9453,-1.9497,-1.9485,-1.9532,-1.9551,-1.9577,-1.9626,-1.9702,-1.9753,-1.9824,-1.9978,-1.9989,-2.0049,-2.0069,-2.0085,-2.0102,-2.0188,-2.0215,-1.992,-1.992,-1.992,0,0,-1.9266,-1.9297,-1.9347,-1.944,-1.9474,-1.9557,-1.947,-1.9561,-1.9623,-1.9565,-1.9685,-1.9706,-1.9759,-1.9899,-1.9962,-1.9922,-2.0186,-2.0101,-2.0114,-2.0123,-2.0203,-2.0231,-2.0256,-1.9929,-1.9927,-1.9926,0,0,-1.9448,-1.9478,-1.9585,-1.9621,-1.9673,-1.9677,-1.9703,-1.9746,-1.9758,-1.9877,-1.9836,-1.991,-2.0041,-2.0081,-2.0119,-2.0316,-2.0283,-2.034,-2.0447,-2.0531,-2.0554,-2.0574,-2.0648,-2.0674,-2.0356,-2.0356,-2.0356,0,-1.9537,-1.966,-1.9644,-1.9739,-1.9782,-1.9731,-1.984,-1.9876,-1.995,-1.9981,-1.9934,-2.0099,-2.013,-2.0281,-2.0329,-2.036,-2.0391,-2.0336,-2.0551,-2.0572,-2.0591,-2.0661,-2.0688,-2.0363,-2.0362,-2.0362,-2.0361,0,-1.9768,-1.9854,-1.9934,-2.0006,-2.0057,-2.0159,-2.0159,-2.0213,-2.0196,-2.0206,-2.0329,-2.0365,-2.0444,-2.0478,-2.0462,-2.0627,-2.06,-2.0553,-2.0471,-2.0626,-2.0692,-2.0718,-2.0373,-2.037,-2.0368,-2.0367,0,0,-2.0014,-2.0074,-2.0104,-2.0137,-2.0191,-2.0258,-2.0357,-2.0433,-2.0481,-2.0533,-2.0618,-2.073,-2.0687,-2.0729,-2.0718,-2.079,-2.0948,-2.0734,-2.0735,-2.0776,-2.1135,-2.1173,-2.1204,-2.0925,-2.0929,-2.0933,-2.1131,0,-2.0202,-2.0375,-2.0363,-2.0527,-2.0607,-2.056,-2.0647,-2.0691,-2.0702,-2.0773,-2.0785,-2.0867,-2.0801,-2.0827,-2.0897,-2.0914,-2.1021,-2.0899,-2.1006,-2.101,-2.0998,-2.1238,-2.1278,-2.1463,-2.1156,-2.1161,-2.1164,0,-2.0445,-2.0505,-2.0677,-2.072,-2.0753,-2.0831,-2.0901,-2.0968,-2.1017,-2.102,-2.1068,-2.1044,-2.1146,-2.1059,-2.1201,-2.1119,-2.1161,-2.1177,-2.1183,-2.1196,-2.1099,-2.126,-2.1522,-2.1551,-2.1204,-2.12,-2.1197,0,-2.0611,-2.0734,-2.0853,-2.0882,-2.0934,-2.0991,-2.1016,-2.1059,-2.1106,-2.1167,-2.1198,-2.127,-2.131,-2.1367,-2.1364,-2.13,-2.1509,-2.1421,-2.1518,-2.1518,-2.1567,-2.1565,-2.1843,-2.1588,-2.1588,-2.1587,-2.1587,0,-2.0824,-2.0932,-2.0929,-2.1003,-2.1123,-2.1108,-2.1227,-2.1245,-2.1284,-2.1362,-2.1325,-2.1399,-2.1389,-2.1464,-2.1461,-2.1581,-2.1599,-2.1606,-2.1605,-2.1612,-2.1612,-2.1642,-2.1631,-2.1595,-2.1593,-2.1592,-2.159,0,-2.1031,-2.1033,-2.1161,-2.1199,-2.1211,-2.1298,-2.1332,-2.1403,-2.141,-2.1509,-2.1532,-2.1544,-2.1631,-2.1632,-2.1731,-2.1729,-2.1877,-2.1859,-2.1861,-2.1859,-2.1956,-2.1949,-2.2267,-2.2309,-2.2024,-2.2027,-2.2029,0,-2.1169,-2.1251,-2.1298,-2.1347,-2.1375,-2.1454,-2.1502,-2.149,-2.1542,-2.1603,-2.1667,-2.1749,-2.1815,-2.1955,-2.1974,-2.2049,-2.2036,-2.2142,-2.2047,-2.2052,-2.2042,-2.2038,-2.2048,-2.2162,-2.2165,-2.2168,-2.217,0,-2.1414,-2.1411,-2.1481,-2.1552,-2.161,-2.1665,-2.1716,-2.1759,-2.1753,-2.1813,-2.19,-2.1951,-2.2051,-2.2135,-2.2208,-2.2234,-2.2203,-2.2199,-2.2226,-2.2236,-2.2234,-2.224,-2.1915,-2.2193,-2.219,-2.2189,-2.2187,-2.2186,-2.1594,-2.1665,-2.171,-2.1789,-2.1826,-2.1875,-2.1944,-2.196,-2.2032,-2.2113,-2.2101,-2.2199,-2.2246,-2.2341,-2.2373,-2.2451,-2.2414,-2.2453,-2.2463,-2.2474,-2.2486,-2.2219,-2.2464,-2.2463,-2.2462,-2.2462,-2.2461,0,-2.184,-2.1866,-2.1939,-2.2012,-2.2075,-2.2037,-2.2092,-2.2148,-2.2234,-2.228,-2.2345,-2.2446,-2.2527,-2.2551,-2.263,-2.2687,-2.2675,-2.2709,-2.2706,-2.2713,-2.2512,-2.2483,-2.2717,-2.2717,-2.2717,-2.2717,-2.2717,-2.2717,-2.1976,-2.2096,-2.2098,-2.2237,-2.2262,-2.2357,-2.2392,-2.2438,-2.2474,-2.2589,-2.2655,-2.267,-2.2709,-2.2789,-2.2862,-2.2867,-2.2899,-2.294,-2.294,-2.2753,-2.2727,-2.2703,-2.2675,-2.2946,-2.2946,-2.3135,-2.3136,-2.3138]},{"header":{"parameterUnit":"m.s-1","parameterCategory":1,"la1":30.2991,"la2":30.254,"lo1":-89.0895,"lo2":-89.0444,"dy":0.0017,"dx":0.0017,"nx":28,"ny":28,"refTime":"2025-04-15T09:00:00:Z","depth":0,"parameterNumber":3,"parameterNumberName":"V-component_of_WINDS"},"data":[0,0,0,0,0,0,0,0,0,0,0,0,0,0,0,0,0,0,0,0,0,0,0,0,0,0,0,0,0,0,0,0,0,0,0,0,0,0,0,0,0,0,0,0,0,0,0,0,0,0,0,0,0,0,0,0,0,0,-4.4323,-4.4324,0,-4.4388,-4.4389,-4.439,-4.4311,-4.4308,-4.4305,-4.4302,-4.4367,-4.4371,-4.4376,0,0,0,0,0,0,0,0,0,0,0,0,0,-4.4127,-4.4131,-4.4323,-4.4324,-4.4325,-4.4388,-4.4389,-4.439,-4.4311,-4.4308,-4.4304,-4.4301,-4.4365,-4.4371,-4.4376,0,0,0,0,0,0,0,0,0,0,0,0,0,-4.4204,-4.4132,-4.4323,-4.4293,-4.4291,-4.4388,-4.4389,-4.439,-4.4312,-4.4308,-4.4303,-4.4299,-4.4364,-4.437,-4.4377,-4.4505,0,0,-4.4397,-4.44,0,0,0,0,0,0,0,0,-4.42,-4.4211,-4.4297,-4.4295,-4.4293,-4.4337,-4.4343,-4.4429,-4.4313,-4.4304,-4.4302,-4.4297,-4.436,-4.4367,-4.4389,-4.4508,-4.4511,-4.4398,-4.4402,-4.4404,-4.4406,0,0,0,0,0,0,0,-4.4194,-4.4208,-4.4349,-4.4298,-4.4296,-4.4275,-4.4282,-4.4359,-4.4356,-4.4305,-4.4299,-4.4308,-4.4358,-4.4383,-4.439,-4.4512,-4.4397,-4.4403,-4.4407,-4.441,-4.4739,-4.4743,0,0,0,0,0,0,-4.4193,-4.4204,-4.4346,-4.4351,-4.4235,-4.4283,-4.4289,-4.4327,-4.4355,-4.4355,-4.4312,-4.4304,-4.4373,-4.4382,-4.4392,-4.4543,-4.4404,-4.4411,-4.4414,-4.4734,-4.474,-4.4745,0,0,0,0,0,0,-4.4189,-4.4206,-4.4344,-4.4276,-4.4292,-4.4291,-4.4334,-4.4331,-4.4355,-4.436,-4.4359,-4.4337,-4.437,-4.4382,-4.4477,-4.4544,-4.4414,-4.442,-4.4728,-4.4736,-4.4742,-4.4848,0,0,0,0,0,0,-4.4184,-4.4205,-4.4255,-4.4278,-4.4296,-4.443,-4.4338,-4.4335,-4.4367,-4.4358,-4.4384,-4.4384,-4.4368,-4.4468,-4.4484,-4.4551,-4.4425,-4.4722,-4.4732,-4.474,-4.4839,-4.4858,-4.4875,0,0,0,0,0,-4.4177,-4.4282,-4.4258,-4.4276,-4.4358,-4.4434,-4.4444,-4.4424,-4.4373,-4.4422,-4.4425,-4.4383,-4.4535,-4.4478,-4.4496,-4.4566,-4.4718,-4.4729,-4.4739,-4.4831,-4.4854,-4.4874,0,0,0,0,0,0,-4.4267,-4.4284,-4.4258,-4.4374,-4.4403,-4.4421,-4.4482,-4.445,-4.4494,-4.4484,-4.4456,-4.4463,-4.4564,-4.4574,-4.4512,-4.4691,-4.4618,-4.4632,-4.4681,-4.4703,-4.4721,-4.4716,-4.443,0,0,0,0,0,-4.43,-4.4361,-4.4373,-4.4474,-4.449,-4.4484,-4.4516,-4.4498,-4.4527,-4.4539,-4.4549,-4.4578,-4.4632,-4.4668,-4.4718,-4.484,-4.4843,-4.4896,-4.4914,-4.4929,-4.4942,-4.5006,-4.5029,-4.478,-4.478,-4.478,0,0,-4.4369,-4.4387,-4.4427,-4.4492,-4.4513,-4.4576,-4.4495,-4.4565,-4.4611,-4.4549,-4.464,-4.4649,-4.4679,-4.4788,-4.4836,-4.4799,-4.5012,-4.4942,-4.4954,-4.4959,-4.5019,-4.5043,-4.5064,-4.4787,-4.4786,-4.4785,0,0,-4.4528,-4.4548,-4.4634,-4.4656,-4.4688,-4.4683,-4.4704,-4.4727,-4.473,-4.4821,-4.4775,-4.4829,-4.4923,-4.4946,-4.497,-4.5137,-4.51,-4.5154,-4.5248,-4.531,-4.533,-4.5347,-4.5406,-4.5428,-4.5167,-4.5167,-4.5167,0,-4.461,-4.4704,-4.4681,-4.4755,-4.4785,-4.4732,-4.4818,-4.4841,-4.4888,-4.4909,-4.4867,-4.4983,-4.5,-4.5113,-4.5154,-4.5175,-4.5197,-4.5151,-4.5329,-4.5346,-4.5362,-4.5418,-4.544,-4.5173,-4.5173,-4.5172,-4.5172,0,-4.4803,-4.4869,-4.4934,-4.4982,-4.5018,-4.5098,-4.5086,-4.5126,-4.5105,-4.5104,-4.5196,-4.5214,-4.5267,-4.5292,-4.5272,-4.5402,-4.5378,-4.5334,-4.5259,-4.5393,-4.5445,-4.5466,-4.5183,-4.518,-4.5178,-4.5177,0,0,-4.5021,-4.5054,-4.5078,-4.5099,-4.513,-4.518,-4.5257,-4.5309,-4.5343,-4.5377,-4.544,-4.552,-4.5479,-4.5506,-4.5488,-4.5543,-4.5673,-4.5491,-4.5491,-4.5524,-4.5817,-4.585,-4.5876,-4.5648,-4.5652,-4.5655,-4.5814,0,-4.5179,-4.5313,-4.5294,-4.5422,-4.5482,-4.5433,-4.5499,-4.5525,-4.5526,-4.5576,-4.5576,-4.5634,-4.5575,-4.5591,-4.5644,-4.5646,-4.5731,-4.5634,-4.5705,-4.5708,-4.57,-4.5903,-4.5939,-4.6088,-4.5834,-4.5838,-4.584,0,-4.5382,-4.5424,-4.5559,-4.558,-4.5605,-4.5665,-4.571,-4.5759,-4.5787,-4.5784,-4.5815,-4.5786,-4.5861,-4.5785,-4.5888,-4.5823,-4.585,-4.5856,-4.5861,-4.5867,-4.5782,-4.5914,-4.6135,-4.6157,-4.5872,-4.587,-4.5867,0,-4.5527,-4.5617,-4.5709,-4.5728,-4.5756,-4.5799,-4.5812,-4.5836,-4.5868,-4.5907,-4.5928,-4.5975,-4.6001,-4.6038,-4.6023,-4.5969,-4.6128,-4.6051,-4.6127,-4.6127,-4.6163,-4.6161,-4.6391,-4.6181,-4.6181,-4.618,-4.618,0,-4.5706,-4.5791,-4.5774,-4.5831,-4.5923,-4.59,-4.5991,-4.5998,-4.602,-4.6076,-4.6035,-4.6089,-4.6065,-4.6117,-4.6105,-4.6191,-4.6203,-4.6202,-4.6198,-4.6206,-4.6206,-4.6223,-4.6213,-4.6186,-4.6185,-4.6184,-4.6183,0,-4.5884,-4.5877,-4.5973,-4.5992,-4.5998,-4.6065,-4.608,-4.6132,-4.613,-4.6201,-4.6217,-4.6213,-4.6271,-4.6259,-4.6323,-4.6315,-4.6423,-4.6406,-4.6414,-4.641,-4.6486,-4.6479,-4.6736,-4.6768,-4.6538,-4.654,-4.6542,0,-4.5999,-4.6063,-4.6088,-4.6123,-4.6139,-4.6196,-4.6229,-4.6208,-4.6244,-4.628,-4.6328,-4.6382,-4.6425,-4.652,-4.6522,-4.6571,-4.6554,-4.6641,-4.6561,-4.6567,-4.6555,-4.6552,-4.6558,-4.6657,-4.666,-4.6662,-4.6663,0,-4.6204,-4.6197,-4.6246,-4.6294,-4.6334,-4.6371,-4.6403,-4.6434,-4.6416,-4.6457,-4.6517,-4.655,-4.6615,-4.667,-4.6715,-4.6727,-4.6692,-4.6688,-4.6708,-4.6717,-4.6719,-4.6719,-4.6457,-4.6683,-4.6681,-4.6679,-4.6678,-4.6678,-4.6353,-4.6407,-4.6433,-4.6489,-4.6511,-4.6542,-4.6592,-4.6596,-4.6646,-4.6698,-4.6682,-4.675,-4.6774,-4.6831,-4.6849,-4.69,-4.6868,-4.6897,-4.6904,-4.6911,-4.6921,-4.6711,-4.6908,-4.6908,-4.6907,-4.6907,-4.6906,0,-4.6555,-4.6569,-4.6621,-4.6668,-4.6712,-4.6676,-4.671,-4.6748,-4.6808,-4.6835,-4.6878,-4.6946,-4.6998,-4.7004,-4.7054,-4.7094,-4.7079,-4.7107,-4.7104,-4.7107,-4.6947,-4.6925,-4.7118,-4.7118,-4.7118,-4.7118,-4.7118,-4.7118,-4.6665,-4.6755,-4.6751,-4.685,-4.6863,-4.6929,-4.6952,-4.698,-4.7001,-4.7079,-4.7122,-4.7126,-4.7144,-4.7194,-4.7241,-4.7241,-4.7261,-4.7295,-4.729,-4.714,-4.7119,-4.7099,-4.7077,-4.73,-4.73,-4.7445,-4.7447,-4.7448]}]]